Telluride, CO

1:34 AM MST on December 10, 2019 (GMT -0700)
Telluride Regional

Weather History for KTEX - October, 2019

Change the Weather History Date:

Friday, October 11, 2019

  Actual Average Record
Temperature  
Mean Temperature 32 °F -  
Max Temperature 48 °F 53 °F 68 °F (1996)
Min Temperature 17 °F 33 °F 17 °F (2019)
Degree Days  
Heating Degree Days 32    
Moisture  
Dew Point 0 °F    
Average Humidity 24    
Maximum Humidity 53    
Minimum Humidity 12    
Precipitation  
Precipitation 0.00 in - - ()
Sea Level Pressure  
Sea Level Pressure 30.34 in    
Wind  
Wind Speed 4 mph (SW)    
Max Wind Speed 16 mph    
Max Gust Speed 21 mph    
Visibility 10 miles    
Events      
Averages and records for this station are not official NWS values.
T = Trace of Precipitation, MM = Missing Value Source: NWS Daily Summary

Daily Weather History Graph

Daily Weather History Graph

Search for Another Location

Airport or City:

Astronomy

Oct. 11, 2019 Rise Set
Actual Time 7:16 AM MDT 6:39 PM MDT
Civil Twilight 6:49 AM MDT 7:06 PM MDT
Nautical Twilight 6:19 AM MDT 7:36 PM MDT
Astronomical Twilight 5:48 AM MDT 8:07 PM MDT
Moon 6:07 PM MDT (10/11) 5:03 AM MDT (10/11)
Length of Visible Light 12h 16m
Length of Day
11h 23m
Waxing Gibbous, 96% of the Moon is Illuminated
Oct 11
Waxing Gibbous
Oct 13
Full
Oct 21
Last Quarter
Oct 27
New
Nov 4
First Quarter

Hourly Weather History & Observations

Time (MDT) Temp. Windchill Dew Point Humidity Pressure Visibility Wind Dir Wind Speed Gust Speed Precip Events Conditions
7:35 AM 17.6 °F - 3.2 °F 53% 30.34 in - Calm Calm - N/A   Unknown
7:55 AM 19.4 °F 12.8 °F 1.4 °F 46% 30.34 in 10.0 mi SE 4.6 mph - N/A   Clear
8:15 AM 21.2 °F 16.4 °F 1.4 °F 42% 30.34 in 10.0 mi ESE 3.5 mph - N/A   Clear
8:35 AM 21.2 °F 16.4 °F 1.4 °F 42% 30.34 in 10.0 mi ESE 3.5 mph - N/A   Clear
8:55 AM 23.0 °F - 1.4 °F 39% 30.35 in 10.0 mi Calm Calm - N/A   Clear
9:15 AM 26.6 °F - -0.4 °F 31% 30.36 in 10.0 mi Calm Calm - N/A   Clear
9:35 AM 28.4 °F - -0.4 °F 29% 30.37 in 10.0 mi Calm Calm - N/A   Clear
9:55 AM 32.0 °F - -0.4 °F 25% 30.37 in 10.0 mi Calm Calm - N/A   Clear
10:15 AM 32.0 °F - -4.0 °F 21% 30.37 in 10.0 mi Calm Calm - N/A   Clear
10:35 AM 35.6 °F - -7.6 °F 16% 30.37 in 10.0 mi Calm Calm - N/A   Clear
10:55 AM 35.6 °F - -5.8 °F 17% 30.37 in 10.0 mi Calm Calm - N/A   Clear
11:15 AM 35.6 °F 29.9 °F -7.6 °F 16% 30.36 in 10.0 mi West 6.9 mph - N/A   Clear
11:35 AM 37.4 °F 34.9 °F -5.8 °F 16% 30.36 in 10.0 mi SW 3.5 mph - N/A   Clear
12:15 PM 41.0 °F 38.0 °F -4.0 °F 15% 30.37 in 10.0 mi West 4.6 mph - N/A   Clear
12:35 PM 42.8 °F 39.3 °F -4.0 °F 14% 30.36 in 10.0 mi West 5.8 mph - N/A   Clear
12:55 PM 42.8 °F 37.5 °F -4.0 °F 14% 30.36 in 10.0 mi WSW 9.2 mph - N/A   Clear
1:15 PM 44.6 °F 38.8 °F -5.8 °F 12% 30.35 in 10.0 mi West 11.5 mph - N/A   Clear
3:35 PM 46.4 °F 41.1 °F -2.2 °F 13% 30.33 in - West 11.5 mph - N/A   Unknown
3:55 PM 46.4 °F 41.9 °F -4.0 °F 12% 30.32 in 10.0 mi West 9.2 mph - N/A   Clear
4:15 PM 48.2 °F - -2.2 °F 12% 30.32 in 10.0 mi West 6.9 mph - N/A   Unknown
4:35 PM 48.2 °F - -2.2 °F 12% 30.31 in 10.0 mi West 10.4 mph - N/A   Clear
4:55 PM 46.4 °F 40.7 °F -0.4 °F 14% 30.31 in 10.0 mi West 12.7 mph - N/A   Clear
5:15 PM 46.4 °F 39.8 °F 3.2 °F 17% 30.31 in 10.0 mi West 16.1 mph - N/A   Clear
5:35 PM 44.6 °F 38.1 °F 3.2 °F 18% 30.31 in 10.0 mi West 13.8 mph - N/A   Clear
5:55 PM 44.6 °F 37.8 °F 3.2 °F 18% 30.31 in 10.0 mi West 15.0 mph - N/A   Clear
6:15 PM 42.8 °F 35.8 °F 3.2 °F 19% 30.31 in 10.0 mi West 13.8 mph 20.7 mph N/A   Clear
6:35 PM 41.0 °F 34.3 °F 1.4 °F 19% 30.32 in 10.0 mi West 11.5 mph 18.4 mph N/A   Clear
6:55 PM 37.4 °F 33.8 °F 1.4 °F 22% 30.33 in 10.0 mi WSW 4.6 mph - N/A   Clear
7:15 PM 37.4 °F 33.8 °F 1.4 °F 22% 30.33 in 10.0 mi West 4.6 mph - N/A   Clear
7:35 PM 35.6 °F - 1.4 °F 24% 30.33 in 10.0 mi Calm Calm - N/A   Clear
7:55 PM 35.6 °F - 1.4 °F 24% 30.34 in 10.0 mi Calm Calm - N/A   Clear
8:15 PM 35.6 °F - 1.4 °F 24% 30.33 in 10.0 mi Calm Calm - N/A   Clear
8:35 PM 33.8 °F - 1.4 °F 25% 30.33 in 10.0 mi Calm Calm - N/A   Clear
8:55 PM 33.8 °F 28.6 °F 3.2 °F 28% 30.33 in 10.0 mi SE 5.8 mph - N/A   Clear
9:15 PM 32.0 °F - 3.2 °F 30% 30.34 in 10.0 mi Calm Calm - N/A   Clear
9:35 PM 32.0 °F 25.6 °F 3.2 °F 30% 30.33 in 10.0 mi SE 6.9 mph - N/A   Clear
9:55 PM 32.0 °F 24.8 °F 3.2 °F 30% 30.33 in 10.0 mi SE 8.1 mph - N/A   Clear
10:15 PM 32.0 °F 24.2 °F 5.0 °F 32% 30.33 in 10.0 mi SE 9.2 mph - N/A   Clear
10:35 PM 32.0 °F 26.4 °F 3.2 °F 30% 30.33 in 10.0 mi SSE 5.8 mph - N/A   Clear
10:55 PM 32.0 °F 26.4 °F 3.2 °F 30% 30.33 in 10.0 mi SE 5.8 mph - N/A   Clear
11:15 PM 32.0 °F 26.4 °F 3.2 °F 30% 30.31 in 10.0 mi SE 5.8 mph - N/A   Clear
11:35 PM 32.0 °F 25.6 °F 3.2 °F 30% 30.31 in 10.0 mi SSE 6.9 mph - N/A   Clear
11:55 PM 32.0 °F 26.4 °F 3.2 °F 30% 30.31 in 10.0 mi SE 5.8 mph - N/A   Clear